Location: ??????
(41.3164°N, 22.6615°E)
Time: 19:03:25
(UTC+00:00)

ZACube-1 - Pass Details

Date: 04 July 2022
Orbit: 582 x 661 km, 97.6° (Epoch: 07 August)

Event Time Altitude Azimuth Distance (km) Brightness Sun altitude
Rises 01:29:23 0° 26° (NNE) 2,967 ? -14.0°
Reaches altitude 10° 01:32:00 10° 41° (NE) 2,062 ? -13.7°
Maximum altitude 01:35:35 23° 94° (E) 1,387 ? -13.2°
Drops below altitude 10° 01:39:12 10° 147° (SSE) 2,069 ? -12.8°
Sets 01:41:48 0° 162° (SSE) 2,979 ? -12.4°
